Location: Santa Maria di Sala
(45.5070°N, 12.0300°E)
Time: 21:48:55
(UTC+01:00)

AO-109 - Visible Passes

Search period start: 27 February 2024 00:00
Search period end: 08 March 2024 00:00
Orbit: 338 x 372 km, 60.7° (Epoch: 27 February)

Date Brightness Start Highest point End Pass type
(mag) Time Alt. Az. Time Alt. Az. Time Alt. Az.
02 Mar ? 06:03:26 10° N 06:05:02 14° NNE 06:06:38 10° ENE visible
04 Mar ? 05:21:29 10° N 05:22:59 13° NNE 05:24:29 10° ENE visible
05 Mar ? 05:46:27 10° NNW 05:49:03 30° NE 05:51:38 10° ESE visible
06 Mar ? 04:38:33 11° N 04:39:43 13° NNE 04:41:05 10° ENE visible
06 Mar ? 06:11:41 10° NW 06:14:33 79° SW 06:17:24 10° SE visible
07 Mar ? 05:03:14 14° NNW 05:05:10 27° NE 05:07:42 10° E visible
